Weather History for PAPH - September, 2013

Change the Weather History Date:

Wednesday, September 4, 2013

  Actual Average Record
Temperature  
Mean Temperature 50 °F -  
Max Temperature 57 °F 53 °F 68 °F (2002)
Min Temperature 44 °F 43 °F 33 °F (2007)
Degree Days  
Heating Degree Days 14    
Moisture  
Dew Point 39 °F    
Average Humidity 65    
Maximum Humidity 82    
Minimum Humidity 40    
Precipitation  
Precipitation 0.01 in - - ()
Sea Level Pressure  
Sea Level Pressure 29.58 in    
Wind  
Wind Speed 17 mph (SSW)    
Max Wind Speed 25 mph    
Max Gust Speed 33 mph    
Visibility 10 miles    
Events      
Averages and records for this station are not official NWS values.
T = Trace of Precipitation, MM = Missing Value Source: NWS Daily Summary

Daily Weather History Graph

Daily Weather History Graph

Search for Another Location

Airport or City:

Trip Planner

Search our weather history database for the weather conditions in past years. The results will help you decide how hot, cold, wet, or windy it might be!

Date:

Astronomy

Sep. 04, 2013 Rise Set
Actual Time 7:43 AM AKDT 9:21 PM AKDT
Civil Twilight 7:03 AM AKDT 10:01 PM AKDT
Nautical Twilight 6:13 AM AKDT 10:50 PM AKDT
Astronomical Twilight 5:15 AM AKDT 11:48 PM AKDT
Moon 7:10 AM AKDT (9/4) 8:37 PM AKDT (9/4)
Length of Visible Light 14h 57m
Length of Day
13h 37m
Waning Crescent, 0% of the Moon is Illuminated
Sep 4
Waning Crescent
Sep 5
New
Sep 12
First Quarter
Sep 19
Full
Sep 26
Last Quarter

Hourly Weather History & Observations

Time (AKDT) Temp. Windchill Dew Point Humidity Pressure Visibility Wind Dir Wind Speed Gust Speed Precip Events Conditions
12:16 AM 48.2 °F - 41.0 °F 76% 29.41 in 10.0 mi SW 18.4 mph - N/A   Mostly Cloudy
12:36 AM 48.2 °F - 41.0 °F 76% 29.41 in 9.0 mi SW 23.0 mph 27.6 mph N/A   Mostly Cloudy
12:56 AM 48.2 °F - 41.0 °F 76% 29.41 in 8.0 mi SW 21.9 mph 28.8 mph N/A   Overcast
1:16 AM 48.2 °F - 41.0 °F 76% 29.42 in 10.0 mi SW 21.9 mph 26.5 mph N/A   Overcast
1:36 AM 48.2 °F - 42.8 °F 82% 29.43 in 5.0 mi SW 25.3 mph - N/A   Overcast
1:56 AM 48.2 °F - 41.0 °F 76% 29.43 in 10.0 mi SW 24.2 mph 31.1 mph N/A   Mostly Cloudy
2:16 AM 48.2 °F - 39.2 °F 71% 29.45 in 10.0 mi WSW 24.2 mph 31.1 mph N/A   Overcast
2:36 AM 48.2 °F - 41.0 °F 76% 29.46 in 6.0 mi SW 19.6 mph 28.8 mph N/A   Overcast
2:56 AM 48.2 °F - 41.0 °F 76% 29.46 in 10.0 mi SW 20.7 mph 27.6 mph N/A   Overcast
3:16 AM 48.2 °F - 39.2 °F 71% 29.48 in 10.0 mi WSW 21.9 mph 32.2 mph N/A   Overcast
3:36 AM 48.2 °F - 37.4 °F 66% 29.49 in 10.0 mi WSW 20.7 mph 28.8 mph 0.01 in   Overcast
3:56 AM 48.2 °F - 39.2 °F 71% 29.49 in 10.0 mi WSW 19.6 mph 29.9 mph 0.01 in   Mostly Cloudy
4:16 AM 48.2 °F - 37.4 °F 66% 29.50 in 10.0 mi WSW 18.4 mph 27.6 mph N/A   Overcast
4:36 AM 48.2 °F - 39.2 °F 71% 29.50 in 10.0 mi SW 19.6 mph - N/A   Overcast
4:56 AM 48.2 °F - 37.4 °F 66% 29.51 in 10.0 mi WSW 19.6 mph 26.5 mph N/A   Overcast
5:16 AM 46.4 °F 38.5 °F 39.2 °F 76% 29.52 in 10.0 mi SW 21.9 mph 26.5 mph N/A   Overcast
5:36 AM 48.2 °F - 37.4 °F 66% 29.53 in 10.0 mi SW 18.4 mph 24.2 mph N/A   Overcast
5:56 AM 46.4 °F 39.8 °F 37.4 °F 71% 29.54 in 10.0 mi WSW 16.1 mph 20.7 mph N/A   Overcast
6:16 AM 46.4 °F 40.7 °F 37.4 °F 71% 29.55 in 10.0 mi SW 12.7 mph 20.7 mph N/A   Overcast
6:36 AM 46.4 °F 39.2 °F 39.2 °F 76% 29.55 in 10.0 mi SW 18.4 mph 24.2 mph N/A   Overcast
6:56 AM 46.4 °F 39.5 °F 39.2 °F 76% 29.56 in 5.0 mi SW 17.3 mph - 0.01 in   Overcast
7:16 AM 46.4 °F 38.7 °F 39.2 °F 76% 29.56 in 8.0 mi SW 20.7 mph 25.3 mph N/A   Overcast
7:36 AM 46.4 °F 39.2 °F 39.2 °F 76% 29.57 in 10.0 mi SW 18.4 mph 28.8 mph N/A   Overcast
7:56 AM 46.4 °F 38.3 °F 39.2 °F 76% 29.58 in 10.0 mi SW 23.0 mph 33.4 mph N/A   Overcast
8:16 AM 46.4 °F 39.5 °F 37.4 °F 71% 29.58 in 10.0 mi SW 17.3 mph - N/A   Overcast
8:36 AM 46.4 °F 39.8 °F 37.4 °F 71% 29.59 in 10.0 mi SSW 16.1 mph 24.2 mph N/A   Overcast
8:56 AM 46.4 °F 40.1 °F 37.4 °F 71% 29.60 in 10.0 mi SSW 15.0 mph 19.6 mph N/A   Overcast
9:16 AM 46.4 °F 39.5 °F 37.4 °F 71% 29.60 in 10.0 mi SW 17.3 mph 23.0 mph N/A   Mostly Cloudy
9:36 AM 48.2 °F - 37.4 °F 66% 29.60 in 10.0 mi SW 15.0 mph - N/A   Overcast
9:56 AM 48.2 °F - 37.4 °F 66% 29.61 in 10.0 mi SW 11.5 mph 21.9 mph N/A   Overcast
10:16 AM 48.2 °F - 37.4 °F 66% 29.61 in 10.0 mi SW 17.3 mph - N/A   Overcast
10:36 AM 48.2 °F - 37.4 °F 66% 29.61 in 10.0 mi SSW 16.1 mph - N/A   Overcast
10:56 AM 48.2 °F - 37.4 °F 66% 29.61 in 10.0 mi SSW 15.0 mph 23.0 mph N/A   Overcast
11:16 AM 48.2 °F - 37.4 °F 66% 29.61 in 10.0 mi SW 12.7 mph - N/A   Overcast
11:36 AM 50.0 °F - 39.2 °F 66% 29.61 in 10.0 mi SW 10.4 mph - N/A   Overcast
11:56 AM 50.0 °F - 37.4 °F 62% 29.62 in 10.0 mi SW 9.2 mph - N/A   Overcast
12:16 PM 50.0 °F - 37.4 °F 62% 29.62 in 10.0 mi SW 8.1 mph - N/A   Overcast
12:36 PM 51.8 °F - 37.4 °F 58% 29.63 in 10.0 mi SW 4.6 mph - N/A   Overcast
12:56 PM 53.6 °F - 35.6 °F 51% 29.63 in 10.0 mi SE 8.1 mph 17.3 mph N/A   Overcast
1:16 PM 55.4 °F - 35.6 °F 47% 29.64 in 10.0 mi SSE 12.7 mph - N/A   Mostly Cloudy
1:36 PM 55.4 °F - 37.4 °F 51% 29.64 in 10.0 mi South 10.4 mph - N/A   Mostly Cloudy
1:56 PM 57.2 °F - 37.4 °F 48% 29.63 in 10.0 mi SSE 18.4 mph 21.9 mph N/A   Mostly Cloudy
2:16 PM 57.2 °F - 35.6 °F 44% 29.63 in 10.0 mi SSE 17.3 mph 21.9 mph N/A   Mostly Cloudy
2:36 PM 55.4 °F - 35.6 °F 47% 29.64 in 10.0 mi SSE 11.5 mph - N/A   Overcast
2:56 PM 57.2 °F - 37.4 °F 48% 29.64 in 10.0 mi SSE 15.0 mph 19.6 mph N/A   Overcast
3:16 PM 55.4 °F - 35.6 °F 47% 29.64 in 10.0 mi SSE 13.8 mph 19.6 mph N/A   Overcast
3:36 PM 55.4 °F - 35.6 °F 47% 29.64 in 10.0 mi SSE 15.0 mph - N/A   Overcast
3:56 PM 55.4 °F - 37.4 °F 51% 29.64 in 10.0 mi SSE 16.1 mph - N/A   Overcast
4:16 PM 55.4 °F - 37.4 °F 51% 29.64 in 10.0 mi SSE 15.0 mph - N/A   Overcast
4:36 PM 55.4 °F - 37.4 °F 51% 29.63 in 10.0 mi SSE 15.0 mph - N/A   Mostly Cloudy
4:56 PM 55.4 °F - 37.4 °F 51% 29.63 in 10.0 mi SSE 15.0 mph - N/A   Mostly Cloudy
5:16 PM 55.4 °F - 37.4 °F 51% 29.63 in 10.0 mi SSE 17.3 mph 21.9 mph N/A   Overcast
5:36 PM 55.4 °F - 37.4 °F 51% 29.62 in 10.0 mi SSE 16.1 mph - N/A   Overcast
5:56 PM 55.4 °F - 39.2 °F 54% 29.62 in 10.0 mi SSE 18.4 mph - N/A   Overcast
6:16 PM 55.4 °F - 39.2 °F 54% 29.62 in 10.0 mi SSE 18.4 mph - N/A   Overcast
6:36 PM 55.4 °F - 37.4 °F 51% 29.62 in 10.0 mi SSE 17.3 mph - N/A   Overcast
6:56 PM 55.4 °F - 39.2 °F 54% 29.61 in 10.0 mi SSE 15.0 mph - N/A   Overcast
7:16 PM 55.4 °F - 39.2 °F 54% 29.61 in 10.0 mi SSE 18.4 mph 24.2 mph N/A   Mostly Cloudy
7:36 PM 53.6 °F - 39.2 °F 58% 29.62 in 10.0 mi SSE 13.8 mph - N/A   Overcast
7:56 PM 53.6 °F - 39.2 °F 58% 29.62 in 10.0 mi SSE 16.1 mph 20.7 mph N/A   Overcast
8:16 PM 53.6 °F - 39.2 °F 58% 29.63 in 10.0 mi SSE 13.8 mph 21.9 mph N/A   Overcast
8:36 PM 53.6 °F - 39.2 °F 58% 29.63 in 10.0 mi SSE 15.0 mph 19.6 mph N/A   Overcast
8:56 PM 51.8 °F - 39.2 °F 62% 29.64 in 10.0 mi SSE 11.5 mph - N/A   Overcast
9:16 PM 51.8 °F - 39.2 °F 62% 29.64 in 10.0 mi South 9.2 mph - N/A   Overcast
9:36 PM 51.8 °F - 42.8 °F 71% 29.66 in 10.0 mi West 10.4 mph 17.3 mph N/A   Overcast
9:56 PM 50.0 °F - 42.8 °F 76% 29.66 in 10.0 mi West 5.8 mph - N/A   Overcast
10:16 PM 48.2 °F - 42.8 °F 82% 29.66 in 10.0 mi West 4.6 mph - N/A   Overcast
10:36 PM 48.2 °F - 42.8 °F 82% 29.67 in 10.0 mi West 5.8 mph - N/A   Overcast
10:56 PM 48.2 °F - 42.8 °F 82% 29.67 in 7.0 mi WSW 8.1 mph - N/A   Overcast
11:16 PM 48.2 °F - 42.8 °F 82% 29.68 in 7.0 mi SW 3.5 mph - 0.02 in   Overcast
11:36 PM 48.2 °F - 42.8 °F 82% 29.69 in 10.0 mi Calm Calm - 0.02 in   Overcast
11:56 PM 48.2 °F - 42.8 °F 82% 29.69 in 10.0 mi Calm Calm - 0.02 in   Overcast